Flag for U.S.A. Weather past 2 weeks in Lincoln, Nebraska, U.S.A.

Now
62 °F

Sunny.


Feels Like: 62 °F
Forecast: 56 / 81 °F
Wind: 3 mph from North

Location: Lincoln Municipal Airport

Current Time: Jul 30, 2014 at 8:25:19 AM

Latest Report: Jul 30, 2014 at 7:54 AM


Visibility: 9 mi

Pressure: 30.14 "Hg

Humidity: 80%

Dew point: 56 °F

Location of LincolnLocation

Historic Weather in Lincoln — Graph

°F

Lincoln temperature yesterday

Maximum temperature yesterday: 82 °F (at 1:54 PM)
Minimum temperature yesterday: 55 °F (at 5:54 AM)
Average temperature yesterday: 70 °F

Past Weeks' High & Low Weather Summary

 TemperatureHumidityPressure
High101 °F (Jul 21, 5:54 PM)91% (Jul 26, 1:54 AM)30.30 "Hg (Jul 26, 1:54 AM)
Low49 °F (Jul 16, 5:54 AM)32% (Jul 16, 2:54 PM)29.69 "Hg (Jul 25, 1:54 PM)
Average75 °F62%30.00 "Hg
* Reported Jul 15 6:54 AM — Jul 30 6:54 AM, Lincoln, Weather by CustomWeather, © 2014

Note: Actual official high and low records may vary slightly from our data, if they occured in-between our weather recording intervals... More about our weather records

Advertising

Lincoln weather history for previous 24 hours

 ConditionsComfort  
Time TempWeatherWind HumidityBarometerVisibility
6:54 AM
Jul 30
58 °FClear.6 mph87%30.14 "Hg9 mi
5:54 AM56 °FClear.5 mph87%30.14 "Hg10 mi
4:54 AM58 °FClear.3 mph87%30.12 "Hg10 mi
3:54 AM59 °FClear.6 mph90%30.11 "Hg10 mi
2:54 AM62 °FClear.3 mph80%30.11 "Hg10 mi
1:54 AM65 °FClear.5 mph76%30.11 "Hg10 mi
12:54 AM64 °FClear.6 mph78%30.12 "Hg10 mi
11:54 PM
Jul 29
64 °FPassing clouds.No wind78%30.13 "Hg10 mi
10:54 PM69 °FClear.No wind59%30.12 "Hg10 mi
9:54 PM68 °FClear.5 mph63%30.12 "Hg10 mi
8:54 PM71 °FSunny.3 mph57%30.10 "Hg10 mi
7:54 PM75 °FSunny.10 mph48%30.10 "Hg10 mi
6:54 PM78 °FSunny.10 mph42%30.10 "Hg10 mi
5:54 PM80 °FSunny.9 mph39%30.12 "Hg10 mi
4:54 PM81 °FScattered clouds.13 mph38%30.12 "Hg10 mi
3:54 PM82 °FPassing clouds.N/A34%30.14 "Hg10 mi
2:54 PM82 °FPassing clouds.7 mph34%30.16 "Hg10 mi
1:54 PM82 °FPassing clouds.9 mph34%30.16 "Hg10 mi
12:54 PM80 °FPassing clouds.9 mph38%30.18 "Hg10 mi
11:54 AM80 °FPartly sunny.N/A39%30.19 "Hg10 mi
10:54 AM77 °FPassing clouds.5 mph48%30.20 "Hg10 mi
9:54 AM72 °FPartly sunny.No wind59%30.20 "Hg10 mi
8:54 AM68 °FPartly sunny.6 mph70%30.20 "Hg10 mi
Weather by CustomWeather, © 2014

See weather overviewHow to use our weather pages